St. Joseph, KS

5:26 AM CDT on May 27, 2018 (GMT -0500)
Rosecrans Memorial

Weather History for KSTJ - October, 2014

Change the Weather History Date:

Sunday, October 5, 2014

  Actual Average Record
Temperature  
Mean Temperature 57 °F 59 °F  
Max Temperature 74 °F 72 °F 96 °F (1963)
Min Temperature 40 °F 46 °F 28 °F (2012)
Degree Days  
Heating Degree Days 8 8  
Month to date heating degree days 44 35  
Since 1 July heating degree days 128 115  
Cooling Degree Days 0 2  
Month to date cooling degree days 7 10  
Year to date cooling degree days 1175 1209  
Growing Degree Days 8 (Base 50)    
Moisture  
Dew Point 44 °F    
Average Humidity 63    
Maximum Humidity 92    
Minimum Humidity 33    
Precipitation  
Precipitation 0.06 in 0.09 in 1.86 in (1967)
Month to date precipitation 2.38 0.45  
Year to date precipitation 26.64 30.17  
Sea Level Pressure  
Sea Level Pressure 29.76 in    
Wind  
Wind Speed 9 mph (WSW)    
Max Wind Speed 23 mph    
Max Gust Speed 33 mph    
Visibility 10 miles    
Events Rain    
T = Trace of Precipitation, MM = Missing Value Source: NWS Daily Summary

Daily Weather History Graph

Daily Weather History Graph

Search for Another Location

Airport or City:

Astronomy

Oct. 05, 2014 Rise Set
Actual Time 7:19 AM CDT 6:55 PM CDT
Civil Twilight 6:52 AM CDT 7:22 PM CDT
Nautical Twilight 6:21 AM CDT 7:53 PM CDT
Astronomical Twilight 5:50 AM CDT 8:25 PM CDT
Moon 5:13 PM CDT (10/5) 3:58 AM CDT (10/5)
Length of Visible Light 12h 29m
Length of Day
11h 35m
Waxing Gibbous, 89% of the Moon is Illuminated
Oct 5
Waxing Gibbous
Oct 8
Full
Oct 15
Last Quarter
Oct 23
New
Oct 30
First Quarter

Hourly Weather History & Observations

Time (CDT) Temp. Windchill Dew Point Humidity Pressure Visibility Wind Dir Wind Speed Gust Speed Precip Events Conditions
12:53 AM 44.1 °F - 41.0 °F 89% 29.84 in 10.0 mi Calm Calm - N/A   Partly Cloudy
1:53 AM 45.0 °F 43.5 °F 42.1 °F 90% 29.82 in 10.0 mi SSE 3.5 mph - N/A   Overcast
2:53 AM 45.0 °F 43.5 °F 42.1 °F 90% 29.81 in 10.0 mi South 3.5 mph - N/A   Mostly Cloudy
3:53 AM 45.0 °F 43.5 °F 42.1 °F 90% 29.78 in 10.0 mi SSE 3.5 mph - N/A   Clear
4:53 AM 43.0 °F 39.5 °F 39.9 °F 89% 29.75 in 10.0 mi South 5.8 mph - N/A   Clear
5:53 AM 42.1 °F 38.4 °F 39.0 °F 89% 29.74 in 10.0 mi South 5.8 mph - N/A   Clear
6:53 AM 43.0 °F 41.3 °F 39.0 °F 86% 29.75 in 10.0 mi SSE 3.5 mph - N/A   Clear
7:53 AM 45.0 °F 42.6 °F 39.9 °F 82% 29.75 in 10.0 mi SE 4.6 mph - N/A   Clear
8:53 AM 53.1 °F - 43.0 °F 69% 29.77 in 10.0 mi West 4.6 mph - N/A   Clear
9:53 AM 60.1 °F - 43.0 °F 53% 29.77 in 10.0 mi WNW 9.2 mph - N/A   Clear
10:53 AM 64.9 °F - 41.0 °F 42% 29.77 in 10.0 mi WNW 13.8 mph - 0.00 in   Clear
11:53 AM 68.0 °F - 43.0 °F 40% 29.77 in 10.0 mi WNW 11.5 mph - 0.00 in Rain Light Rain
12:53 PM 70.0 °F - 43.0 °F 38% 29.76 in 10.0 mi NW 15.0 mph 25.3 mph 0.00 in Rain Light Rain
1:53 PM 71.1 °F - 42.1 °F 35% 29.74 in 10.0 mi NW 18.4 mph 26.5 mph 0.00 in Rain Light Rain
2:53 PM 73.0 °F - 42.1 °F 33% 29.73 in 10.0 mi NW 17.3 mph 23.0 mph 0.00 in Rain Light Rain
3:53 PM 72.0 °F - 42.1 °F 34% 29.73 in 10.0 mi NW 16.1 mph 23.0 mph 0.00 in Rain Light Rain
4:53 PM 71.1 °F - 42.1 °F 35% 29.73 in 10.0 mi NW 12.7 mph - 0.00 in Rain Light Rain
5:53 PM 70.0 °F - 45.0 °F 41% 29.72 in 10.0 mi Calm Calm - 0.00 in Rain Light Rain
6:53 PM 64.0 °F - 48.0 °F 56% 29.72 in 10.0 mi SW 4.6 mph - 0.00 in   Overcast
7:53 PM 64.9 °F - 46.0 °F 50% 29.72 in 10.0 mi West 10.4 mph - 0.00 in Rain Light Rain
8:53 PM 57.9 °F - 51.1 °F 78% 29.74 in 10.0 mi West 8.1 mph - 0.02 in Rain Light Rain
9:53 PM 59.0 °F - 50.0 °F 72% 29.79 in 10.0 mi WNW 23.0 mph 31.1 mph 0.00 in Rain Light Rain
10:53 PM 53.1 °F - 51.1 °F 93% 29.75 in 10.0 mi West 3.5 mph - 0.04 in   Partly Cloudy
11:53 PM 53.1 °F - 50.0 °F 89% 29.75 in 10.0 mi WSW 6.9 mph - N/A   Clear